Location: Powder Track
(41.8531°N, 72.3584°W)
Time: 08:52:41
(UTC+00:00)

Altair - Pass Details

Date: 03 August 2021
Orbit: 1501 x 1682 km, 47.2° (Epoch: 19 September)

Event Time Altitude Azimuth Distance (km) Brightness Sun altitude
Exits shadow 05:07:53 50° 135° (SE) 1,890 7.6 -30.6°
Drops below altitude 10° 05:16:28 10° 68° (ENE) 3,681 9.8 -30.5°
Sets 05:19:34 0° 63° (ENE) 4,652 10.4 -30.5°
